Time,TemperatureF,DewpointF,PressureIn,WindDirection,WindDirectionDegrees,WindSpeedMPH,WindSpeedGustMPH,Humidity,HourlyPrecipIn,Conditions,Clouds,dailyrainin,SoftwareType,DateUTC
2013-07-08 00:02:00,63.0,51.0,30.59,West,270,0.0,0.0,65,-99.99,,,-99.99,,2013-07-08 07:02:00,
2013-07-08 00:11:00,63.0,52.0,30.60,West,270,0.0,0.0,67,-99.99,,,-99.99,,2013-07-08 07:11:00,
2013-07-08 00:22:00,63.0,53.0,30.60,West,270,0.0,0.0,70,-99.99,,,-99.99,,2013-07-08 07:22:00,
2013-07-08 00:34:00,62.0,51.0,30.60,West,270,0.0,0.0,68,-99.99,,,-99.99,,2013-07-08 07:34:00,
2013-07-08 00:44:00,62.0,52.0,30.60,West,270,0.0,0.0,69,-99.99,,,-99.99,,2013-07-08 07:44:00,
2013-07-08 00:52:00,62.0,52.0,30.60,West,270,0.0,0.0,69,-99.99,,,-99.99,,2013-07-08 07:52:00,
2013-07-08 01:01:00,61.0,51.0,30.60,West,270,0.0,0.0,70,-99.99,,,-99.99,,2013-07-08 08:01:00,
2013-07-08 01:11:00,61.0,51.0,30.60,West,270,0.0,0.0,70,-99.99,,,-99.99,,2013-07-08 08:11:00,
2013-07-08 01:21:00,60.0,50.0,30.60,West,270,0.0,0.0,70,-99.99,,,-99.99,,2013-07-08 08:21:00,
2013-07-08 01:33:00,60.0,51.0,30.60,West,270,0.0,0.0,71,-99.99,,,-99.99,,2013-07-08 08:33:00,
2013-07-08 01:42:00,59.0,50.0,30.59,West,270,0.0,0.0,72,-99.99,,,-99.99,,2013-07-08 08:42:00,
2013-07-08 01:52:00,59.0,50.0,30.60,West,270,0.0,0.0,72,-99.99,,,-99.99,,2013-07-08 08:52:00,
2013-07-08 02:01:00,59.0,50.0,30.60,West,270,0.0,0.0,73,-99.99,,,-99.99,,2013-07-08 09:01:00,
2013-07-08 02:11:00,58.0,50.0,30.60,West,270,0.0,0.0,74,-99.99,,,-99.99,,2013-07-08 09:11:00,
2013-07-08 02:21:00,58.0,50.0,30.61,West,270,0.0,0.0,74,-99.99,,,-99.99,,2013-07-08 09:21:00,
2013-07-08 02:34:00,58.0,50.0,30.62,West,270,0.0,0.0,74,-99.99,,,-99.99,,2013-07-08 09:34:00,
2013-07-08 02:43:00,57.0,49.0,30.62,West,270,0.0,0.0,75,-99.99,,,-99.99,,2013-07-08 09:43:00,
2013-07-08 02:52:00,57.0,50.0,30.62,West,270,0.0,0.0,76,-99.99,,,-99.99,,2013-07-08 09:52:00,
2013-07-08 03:01:00,57.0,50.0,30.62,West,270,0.0,0.0,76,-99.99,,,-99.99,,2013-07-08 10:01:00,
2013-07-08 03:11:00,57.0,50.0,30.62,West,270,0.0,0.0,76,-99.99,,,-99.99,,2013-07-08 10:11:00,
2013-07-08 03:21:00,57.0,50.0,30.62,West,270,0.0,0.0,76,-99.99,,,-99.99,,2013-07-08 10:21:00,
2013-07-08 03:34:00,57.0,50.0,30.63,West,270,0.0,0.0,76,-99.99,,,-99.99,,2013-07-08 10:34:00,
2013-07-08 03:43:00,57.0,50.0,30.63,West,270,0.0,0.0,76,-99.99,,,-99.99,,2013-07-08 10:43:00,
2013-07-08 03:53:00,57.0,50.0,30.62,West,270,0.0,0.0,76,-99.99,,,-99.99,,2013-07-08 10:53:00,
2013-07-08 04:01:00,56.0,49.0,30.62,West,270,0.0,0.0,76,-99.99,,,-99.99,,2013-07-08 11:01:00,
2013-07-08 04:11:00,56.0,49.0,30.63,West,270,0.0,0.0,77,-99.99,,,-99.99,,2013-07-08 11:11:00,
2013-07-08 04:33:00,56.0,49.0,30.63,West,270,0.0,0.0,76,-99.99,,,-99.99,,2013-07-08 11:33:00,
2013-07-08 04:43:00,56.0,50.0,30.63,West,270,0.0,0.0,79,-99.99,,,-99.99,,2013-07-08 11:43:00,
2013-07-08 04:52:00,56.0,50.0,30.64,West,270,0.0,0.0,79,-99.99,,,-99.99,,2013-07-08 11:52:00,
2013-07-08 05:01:00,56.0,49.0,30.64,West,270,0.0,0.0,78,-99.99,,,-99.99,,2013-07-08 12:01:00,
2013-07-08 05:11:00,56.0,50.0,30.64,West,270,0.0,0.0,79,-99.99,,,-99.99,,2013-07-08 12:11:00,
2013-07-08 05:22:00,56.0,50.0,30.64,West,270,0.0,0.0,81,-99.99,,,-99.99,,2013-07-08 12:22:00,
2013-07-08 05:33:00,56.0,50.0,30.64,West,270,0.0,0.0,79,-99.99,,,-99.99,,2013-07-08 12:33:00,
2013-07-08 05:43:00,56.0,50.0,30.64,West,270,0.0,0.0,80,-99.99,,,-99.99,,2013-07-08 12:43:00,
2013-07-08 05:53:00,56.0,50.0,30.64,West,270,0.0,0.0,81,-99.99,,,-99.99,,2013-07-08 12:53:00,
2013-07-08 06:01:00,56.0,50.0,30.65,West,270,0.0,0.0,81,-99.99,,,-99.99,,2013-07-08 13:01:00,
2013-07-08 06:11:00,56.0,50.0,30.65,West,270,0.0,0.0,81,-99.99,,,-99.99,,2013-07-08 13:11:00,
2013-07-08 06:22:00,55.0,49.0,30.66,West,270,0.0,0.0,80,-99.99,,,-99.99,,2013-07-08 13:22:00,
2013-07-08 06:53:00,55.0,49.0,30.66,West,270,0.0,0.0,80,-99.99,,,-99.99,,2013-07-08 13:53:00,
2013-07-08 07:01:00,55.0,49.0,30.66,West,270,0.0,0.0,80,-99.99,,,-99.99,,2013-07-08 14:01:00,
2013-07-08 07:12:00,56.0,50.0,30.67,West,270,0.0,0.0,80,-99.99,,,-99.99,,2013-07-08 14:12:00,
2013-07-08 07:22:00,56.0,51.0,30.67,West,270,0.0,0.0,82,-99.99,,,-99.99,,2013-07-08 14:22:00,
2013-07-08 07:33:00,56.0,50.0,30.67,West,270,0.0,0.0,80,-99.99,,,-99.99,,2013-07-08 14:33:00,
2013-07-08 07:43:00,56.0,50.0,30.68,West,270,0.0,0.0,79,-99.99,,,-99.99,,2013-07-08 14:43:00,
2013-07-08 07:53:00,56.0,50.0,30.68,West,270,0.0,0.0,81,-99.99,,,-99.99,,2013-07-08 14:53:00,
2013-07-08 08:01:00,56.0,50.0,30.69,West,270,0.0,0.0,81,-99.99,,,-99.99,,2013-07-08 15:01:00,
2013-07-08 08:11:00,56.0,50.0,30.68,West,270,0.0,0.0,79,-99.99,,,-99.99,,2013-07-08 15:11:00,
2013-07-08 08:33:00,57.0,51.0,30.69,West,270,0.0,0.0,79,-99.99,,,-99.99,,2013-07-08 15:33:00,
2013-07-08 08:43:00,57.0,51.0,30.69,West,270,0.0,0.0,79,-99.99,,,-99.99,,2013-07-08 15:43:00,
2013-07-08 08:53:00,58.0,51.0,30.70,West,270,0.0,0.0,78,-99.99,,,-99.99,,2013-07-08 15:53:00,
2013-07-08 09:01:00,58.0,51.0,30.70,West,270,0.0,0.0,77,-99.99,,,-99.99,,2013-07-08 16:01:00,
2013-07-08 09:11:00,58.0,51.0,30.70,West,270,0.0,0.0,77,-99.99,,,-99.99,,2013-07-08 16:11:00,
2013-07-08 09:22:00,60.0,53.0,30.71,West,270,0.0,0.0,77,-99.99,,,-99.99,,2013-07-08 16:22:00,
2013-07-08 09:33:00,60.0,52.0,30.71,West,270,0.0,0.0,75,-99.99,,,-99.99,,2013-07-08 16:33:00,
2013-07-08 09:52:00,62.0,52.0,30.71,West,270,0.0,0.0,71,-99.99,,,-99.99,,2013-07-08 16:52:00,
2013-07-08 10:01:00,62.0,54.0,30.71,West,270,0.0,0.0,74,-99.99,,,-99.99,,2013-07-08 17:01:00,
2013-07-08 10:11:00,63.0,53.0,30.72,West,270,0.0,0.0,71,-99.99,,,-99.99,,2013-07-08 17:11:00,
2013-07-08 10:22:00,63.0,54.0,30.72,West,270,0.0,0.0,72,-99.99,,,-99.99,,2013-07-08 17:22:00,
2013-07-08 14:02:00,73.0,54.0,30.73,West,270,0.0,0.0,51,-99.99,,,-99.99,,2013-07-08 21:02:00,
2013-07-08 15:12:00,77.0,56.0,30.73,West,270,0.0,0.0,48,-99.99,,,-99.99,,2013-07-08 22:12:00,
2013-07-08 15:34:00,76.0,55.0,30.73,West,270,0.0,0.0,48,-99.99,,,-99.99,,2013-07-08 22:34:00,
2013-07-08 15:44:00,76.0,55.0,30.73,West,270,0.0,0.0,48,-99.99,,,-99.99,,2013-07-08 22:44:00,
2013-07-08 15:54:00,76.0,54.0,30.73,West,270,0.0,0.0,47,-99.99,,,-99.99,,2013-07-08 22:54:00,
2013-07-08 16:02:00,77.0,55.0,30.73,West,270,0.0,0.0,46,-99.99,,,-99.99,,2013-07-08 23:02:00,
2013-07-08 16:12:00,77.0,55.0,30.73,West,270,0.0,0.0,46,-99.99,,,-99.99,,2013-07-08 23:12:00,
2013-07-08 16:24:00,79.0,54.0,30.73,West,270,0.0,0.0,42,-99.99,,,-99.99,,2013-07-08 23:24:00,
2013-07-08 16:34:00,80.0,55.0,30.72,West,270,0.0,0.0,42,-99.99,,,-99.99,,2013-07-08 23:34:00,
2013-07-08 17:12:00,81.0,55.0,30.72,West,270,0.0,0.0,41,-99.99,,,-99.99,,2013-07-09 00:12:00,
2013-07-08 19:31:00,-999.0,-99.9,30.72,West,270,0.0,0.0,37,-99.99,,,-99.99,,2013-07-09 02:31:00,
2013-07-08 19:43:00,83.0,54.0,30.73,West,270,0.0,0.0,37,-99.99,,,-99.99,,2013-07-09 02:43:00,
2013-07-08 19:54:00,83.0,54.0,30.73,West,270,0.0,0.0,37,-99.99,,,-99.99,,2013-07-09 02:54:00,
2013-07-08 20:22:00,81.0,54.0,30.72,West,270,0.0,0.0,40,-99.99,,,-99.99,,2013-07-09 03:22:00,
2013-07-08 20:33:00,80.0,54.0,30.72,West,270,0.0,0.0,41,-99.99,,,-99.99,,2013-07-09 03:33:00,
2013-07-08 20:44:00,79.0,54.0,30.72,West,270,0.0,0.0,42,-99.99,,,-99.99,,2013-07-09 03:44:00,
2013-07-08 21:02:00,76.0,52.0,30.72,West,270,0.0,0.0,43,-99.99,,,-99.99,,2013-07-09 04:02:00,
2013-07-08 21:11:00,75.0,52.0,30.73,West,270,0.0,0.0,44,-99.99,,,-99.99,,2013-07-09 04:11:00,
2013-07-08 21:22:00,75.0,52.0,30.73,West,270,0.0,0.0,44,-99.99,,,-99.99,,2013-07-09 04:22:00,
2013-07-08 21:33:00,73.0,52.0,30.73,West,270,0.0,0.0,47,-99.99,,,-99.99,,2013-07-09 04:33:00,
2013-07-08 21:42:00,73.0,52.0,30.73,West,270,0.0,0.0,47,-99.99,,,-99.99,,2013-07-09 04:42:00,
2013-07-08 21:53:00,72.0,51.0,30.73,West,270,0.0,0.0,48,-99.99,,,-99.99,,2013-07-09 04:53:00,
2013-07-08 22:02:00,72.0,51.0,30.73,West,270,0.0,0.0,47,-99.99,,,-99.99,,2013-07-09 05:02:00,
2013-07-08 22:11:00,72.0,51.0,30.73,West,270,0.0,0.0,47,-99.99,,,-99.99,,2013-07-09 05:11:00,
2013-07-08 22:22:00,72.0,51.0,30.73,West,270,0.0,0.0,47,-99.99,,,-99.99,,2013-07-09 05:22:00,
2013-07-08 22:33:00,72.0,51.0,30.73,West,270,0.0,0.0,47,-99.99,,,-99.99,,2013-07-09 05:33:00,
2013-07-08 22:42:00,71.0,50.0,30.73,West,270,0.0,0.0,47,-99.99,,,-99.99,,2013-07-09 05:42:00,
2013-07-08 22:52:00,71.0,50.0,30.73,West,270,0.0,0.0,48,-99.99,,,-99.99,,2013-07-09 05:52:00,
2013-07-08 23:01:00,71.0,50.0,30.73,West,270,0.0,0.0,48,-99.99,,,-99.99,,2013-07-09 06:01:00,
2013-07-08 23:11:00,70.0,49.0,30.73,West,270,0.0,0.0,48,-99.99,,,-99.99,,2013-07-09 06:11:00,
2013-07-08 23:22:00,70.0,49.0,30.73,West,270,0.0,0.0,48,-99.99,,,-99.99,,2013-07-09 06:22:00,
2013-07-08 23:33:00,70.0,51.0,30.73,West,270,0.0,0.0,51,-99.99,,,-99.99,,2013-07-09 06:33:00,
2013-07-08 23:43:00,70.0,52.0,30.74,West,270,0.0,0.0,53,-99.99,,,-99.99,,2013-07-09 06:43:00,
2013-07-08 23:53:00,70.0,53.0,30.73,West,270,0.0,0.0,54,-99.99,,,-99.99,,2013-07-09 06:53:00,